{"data":{"norad_id":48404,"epoch":"2026-09-20T02:24:49.057056Z","epoch_age_seconds":68089,"freshness":"FRESH","line1":"1 48404U 21038BD  26263.10056779 -.00000241  00000+0  39938-5 0  9992","line2":"2 48404  53.1611 147.9172 0001253 106.6762 253.4377 15.31701609297236","mean_motion":15.31701609,"eccentricity":0.0001253,"inclination_deg":53.1611,"raan_deg":147.9172,"arg_perigee_deg":106.6762,"mean_anomaly_deg":253.4377,"bstar":3.9938e-6,"rev_number":29723,"period_min":94.01308920346,"perigee_km":469.87703519805,"apogee_km":471.59336257109,"semimajor_km":6848.8721988846,"source":"CELESTRAK","updated_at":"2026-09-20T09:00:38.947599Z"}}